MHLM

Details ICAO MHLM (SAP)
Name La Mesa Intl
Region Honduras
Timezone America/Tegucigalpa (UTC-6.0)
Plans Departing 94
Arriving 93
Stats Elevation 91 ft / 28 m (AMSL)
Location 15.451957° -87.924153°
Runways 1
Magnetic Variation 0.533° W
Sunrise 2018-05-20 11:22:51 UTC / 2018-05-20 05:22:51 Local
Sunset 2018-05-21 00:16:28 UTC / 2018-05-20 18:16:28 Local
Advertisement - Login to hide

Runways

ID Width Length Bearing (true) Bearing (mag) Surface Threshold Offset Overrun Length
04 148 ft / 45 m 9,232 ft / 2,814 m 40.08° 40.61° Concrete 656 ft / 200 m 262 ft / 80 m
22 148 ft / 45 m 9,232 ft / 2,814 m 220.08° 220.61° Concrete 0 ft / 0 m 492 ft / 150 m

Map

Weather


0- 5 10 15 20 25 30 35+ Temperature / ° C

Clouds and Precipitation
Forecast for 2018-05-21 00:00 UTC. Updated 3 hours ago

Ground ~20,000 ft ~40,000 ft Winds

METAR

MHLM 210200Z 36007KT 9999 FEW026 BKN250 28/27 Q1010 A2983 NOSIG

TAF

Not found

Frequencies

Ground 121.90 MHz GND
Approach 119.70 MHz APP
Tower 118.20 MHz TWR
Warning: Do not use this data for real-world aviation or navigation. No guarantee of current accuracy is given.